Regional Weather Roundup
Issued by NWS Glasgow, MT

Home | Current Version | Previous Version | Text Only | Print | Product List | Glossary On
Versions: 1 2 3 4 5 6 7 8 9 10 11 12 13 14 15 16 17 18 19 20 21 22 23 24 25 26 27 28 29 30 31 32 33 34 35 36 37 38 39 40 41 42 43 44 45 46 47 48 49 50
000
ASUS45 KGGW 251415
RWRGGW
HOURLY WEATHER ROUNDUP FOR NORTHEAST MONTANA
NATIONAL WEATHER SERVICE GLASGOW MONTANA
800 AM MDT MON MAY 25 2015

NOTE: "FAIR" INDICATES FEW OR NO CLOUDS BELOW 12,000 FEET WITH NO
SIGNIFICANT WEATHER AND/OR OBSTRUCTIONS TO VISISBILITY.

NORTHEAST MONTANA


CITY           SKY/WX    TMP DP  RH WIND       PRES   REMARKS
GLASGOW        SUNNY     56  45  66 CALM      29.89S
WOLF POINT     MOSUNNY   56  48  74 CALM      29.90S
JORDAN           N/A     52  47  83 W5        29.90S
WINNETT          N/A     57  46  66 S2          N/A
SIDNEY         PTSUNNY   55  50  82 CALM      29.89S
GLENDIVE       PTSUNNY   55  52  88 S3        29.90S
MALTA            N/A     50  44  80 SW3         N/A
SCOBEY           N/A     53  39  59 E5        29.89

FORT PECK REPORTS


CITY           SKY/WX    TMP DP  RH WIND       PRES   REMARKS
FORT PECK        N/A     55  50  83 SE2         N/A
THE PINES        N/A     57  49  74 S2          N/A

SOUTHEAST MONTANA


CITY           SKY/WX    TMP DP  RH WIND       PRES   REMARKS
BILLINGS       PTSUNNY   53  45  74 W3        29.93R
MILES CITY     CLOUDY    55  51  86 NW3       29.90R
BAKER          CLOUDY    55  51  86 N7        29.90R
LIVINGSTON     MOSUNNY   47  43  86 CALM      29.96S

CENTRAL MONTANA


CITY           SKY/WX    TMP DP  RH WIND       PRES   REMARKS
HAVRE          MOSUNNY   53  45  74 W3        29.91S
LEWISTOWN      SUNNY     51  45  79 SE3       29.94F
GREAT FALLS    MOSUNNY   51  45  79 SW9       29.93S
CUT BANK       SUNNY     48  42  80 N3        29.93S
HELENA         SUNNY     50  42  74 NW3       29.95S
BUTTE          SUNNY     40  36  86 CALM      29.99R
BOZEMAN        SUNNY     48  44  86 CALM      29.97S

WESTERN MONTANA


CITY           SKY/WX    TMP DP  RH WIND       PRES   REMARKS
MISSOULA       MOSUNNY   48  40  73 SE5       29.93S
KALISPELL      NOT AVBL

NORTH DAKOTA


CITY           SKY/WX    TMP DP  RH WIND       PRES   REMARKS
WILLISTON      PTSUNNY   57  47  69 CALM      29.88F
DICKINSON      LGT RAIN  54  51  90 NE7       29.88R FOG
MINOT          CLOUDY    58  49  72 SW5       29.86S
BISMARCK       LGT RAIN  57  55  93 N5        29.86R FOG

SOUTHERN SASKATCHEWAN


CITY           SKY/WX    TMP DP  RH WIND       PRES   REMARKS
REGINA         PTSUNNY   63  43  48 VRB2      29.88S
MOOSE JAW      PTSUNNY   63  45  51 NW5       29.88F
ESTEVAN        PTSUNNY   61  48  63 CALM      29.88F
SWIFT CURRENT  PTSUNNY   64  43  45 N3        29.90S



USA.gov is the U.S. government's official web portal to all federal, state and local government web resources and services.